Location: Unnamed
(48.6007°N, 2.4808°E)
Time: 19:01:17
(UTC+02:00)

DX 1 - Pass Details

Date: 05 April 2023
Orbit: 615 x 625 km, 98.4° (Epoch: 04 June)

Event Time Altitude Azimuth Distance (km) Brightness Sun altitude
Rises 00:20:46 0° 14° (NNE) 2,899 ? -31.9°
Reaches altitude 10° 00:22:57 10° 14° (NNE) 1,989 ? -32.1°
Enters shadow 00:24:29 22° 14° (NNE) 1,376 ? -32.2°
